Check out our new BloomSky Weather System.

Active alerts


No alerts


Thunder radar  blitzortung!


Rain radar more information rain snow radar


Visit our other weather sites:

Template documentation
and downloads

And another site



Weather Underground History page Text

Daily Summary for January 6, 2017 Units:  English    Metric   Both
« Previous Day
Next Day »
Daily Weekly Monthly Yearly Custom
  High: Low: Average:
Temperature: 43.5 °F 25.9 °F 34.4 °F
Dew Point: 40.6 °F 20.5 °F 29.8 °F
Humidity: 93 % 74 % 83 %
Wind Speed: 13.0 mph 0.0 mph 5 mph
Wind Gust: 17.0 mph - -
Wind:- - WNW
Pressure: 30.47 in 29.99 in -
Precipitation: 0.14 in    
Historical Graphs
 
 
Tabular Data for January 6, 2017
Time Temperature Dew Point Pressure Wind Wind Speed Wind Gust Humidity Rainfall Rate (Hourly)
00:02 43.3 °F 40.6 °F 30.00 in NNE 3.0 mph 9.0 mph 90 % 0.00 in
00:07 43.3 °F 40.3 °F 30.00 in NNW 6.0 mph 9.0 mph 89 % 0.00 in
00:12 43.3 °F 40.3 °F 30.00 in NNW 5.0 mph 9.0 mph 89 % 0.00 in
00:17 43.3 °F 40.3 °F 30.00 in North 5.0 mph 9.0 mph 89 % 0.00 in
00:22 43.3 °F 40.3 °F 30.01 in NNW 4.0 mph 9.0 mph 89 % 0.00 in
00:27 43.3 °F 40.3 °F 30.01 in NNW 3.0 mph 10.0 mph 89 % 0.00 in
00:32 43.3 °F 40.1 °F 30.01 in North 6.0 mph 10.0 mph 88 % 0.00 in
00:37 43.3 °F 40.1 °F 30.01 in NNW 6.0 mph 11.0 mph 88 % 0.00 in
00:42 43.3 °F 39.7 °F 30.01 in NNE 5.0 mph 11.0 mph 87 % 0.00 in
00:43 43.3 °F 39.7 °F 30.01 in NW 3.0 mph 11.0 mph 87 % 0.00 in
00:48 43.5 °F 39.6 °F 30.01 in NW 7.0 mph 11.0 mph 86 % 0.00 in
00:53 43.5 °F 39.6 °F 30.00 in NW 7.0 mph 11.0 mph 86 % 0.00 in
00:58 43.5 °F 39.4 °F 30.00 in North 2.0 mph 12.0 mph 85 % 0.00 in
01:03 43.5 °F 39.4 °F 29.99 in NNW 2.0 mph 12.0 mph 85 % 0.00 in
01:08 43.5 °F 39.4 °F 29.99 in NNW 1.0 mph 13.0 mph 85 % 0.00 in
01:13 43.5 °F 39.0 °F 29.99 in NNE 1.0 mph 15.0 mph 84 % 0.00 in
01:18 43.3 °F 38.8 °F 30.00 in WNW 7.0 mph 15.0 mph 84 % 0.00 in
01:23 43.3 °F 38.8 °F 29.99 in North 3.0 mph 15.0 mph 84 % 0.00 in
01:28 43.3 °F 38.8 °F 30.00 in NNW 4.0 mph 10.0 mph 84 % 0.00 in
01:33 43.3 °F 38.8 °F 29.99 in NNW 4.0 mph 10.0 mph 84 % 0.00 in
01:38 43.2 °F 38.7 °F 29.99 in NW 3.0 mph 10.0 mph 84 % 0.00 in
01:43 43.2 °F 38.7 °F 30.00 in NNW 6.0 mph 10.0 mph 84 % 0.00 in
01:48 43.0 °F 38.5 °F 30.00 in NNE 2.0 mph 12.0 mph 84 % 0.00 in
01:53 43.0 °F 38.5 °F 30.00 in NW 1.0 mph 12.0 mph 84 % 0.00 in
01:58 43.0 °F 38.1 °F 29.99 in WNW 3.0 mph 12.0 mph 83 % 0.00 in
02:03 42.6 °F 37.8 °F 29.99 in North 4.0 mph 9.0 mph 83 % 0.00 in
02:08 42.6 °F 37.6 °F 30.00 in NW 2.0 mph 8.0 mph 82 % 0.00 in
02:13 42.4 °F 37.4 °F 30.00 in NW 3.0 mph 13.0 mph 82 % 0.00 in
02:18 42.4 °F 37.4 °F 30.00 in North 5.0 mph 13.0 mph 82 % 0.00 in
02:25 42.4 °F 37.0 °F 30.01 in North 2.0 mph 13.0 mph 81 % 0.00 in
02:30 42.4 °F 37.0 °F 30.00 in NNW 9.0 mph 13.0 mph 81 % 0.00 in
02:35 42.4 °F 37.0 °F 30.01 in West 3.0 mph 13.0 mph 81 % 0.00 in
02:40 42.3 °F 36.9 °F 30.01 in NNW 1.0 mph 13.0 mph 81 % 0.00 in
02:45 42.4 °F 37.4 °F 30.01 in NW 5.0 mph 11.0 mph 82 % 0.00 in
02:50 42.3 °F 36.9 °F 30.02 in WNW 5.0 mph 9.0 mph 81 % 0.00 in
02:55 42.3 °F 36.5 °F 30.03 in North 4.0 mph 9.0 mph 80 % 0.00 in
03:00 42.3 °F 36.5 °F 30.03 in ENE 2.0 mph 9.0 mph 80 % 0.00 in
03:05 42.3 °F 36.9 °F 30.02 in NW 1.0 mph 15.0 mph 81 % 0.00 in
03:10 42.1 °F 36.7 °F 30.03 in North 2.0 mph 15.0 mph 81 % 0.00 in
03:15 42.1 °F 37.0 °F 30.02 in NNW 7.0 mph 15.0 mph 82 % 0.00 in
03:20 41.9 °F 36.5 °F 30.02 in NW 2.0 mph 11.0 mph 81 % 0.00 in
03:25 41.7 °F 36.7 °F 30.02 in NNW 6.0 mph 11.0 mph 82 % 0.00 in
03:30 41.4 °F 36.3 °F 30.03 in NW 5.0 mph 11.0 mph 82 % 0.00 in
03:35 41.0 °F 36.0 °F 30.03 in NE 5.0 mph 14.0 mph 82 % 0.00 in
03:40 40.6 °F 35.2 °F 30.03 in NNW 7.0 mph 14.0 mph 81 % 0.00 in
03:45 40.1 °F 34.7 °F 30.03 in NNW 3.0 mph 14.0 mph 81 % 0.00 in
03:50 39.7 °F 34.2 °F 30.04 in NW 4.0 mph 14.0 mph 80 % 0.00 in
03:55 39.4 °F 33.8 °F 30.03 in NW 6.0 mph 14.0 mph 80 % 0.00 in
04:00 39.0 °F 33.6 °F 30.04 in WNW 4.0 mph 12.0 mph 81 % 0.00 in
04:05 39.0 °F 33.6 °F 30.04 in NW 4.0 mph 11.0 mph 81 % 0.00 in
04:10 38.8 °F 33.4 °F 30.04 in NW 8.0 mph 11.0 mph 81 % 0.00 in
04:15 38.5 °F 33.1 °F 30.04 in WNW 4.0 mph 10.0 mph 81 % 0.00 in
04:20 38.3 °F 32.9 °F 30.05 in NNE 8.0 mph 10.0 mph 81 % 0.00 in
04:25 37.9 °F 32.9 °F 30.05 in NW 5.0 mph 12.0 mph 82 % 0.00 in
04:30 37.2 °F 32.5 °F 30.04 in NW 6.0 mph 13.0 mph 83 % 0.00 in
04:35 36.9 °F 32.2 °F 30.04 in NW 9.0 mph 16.0 mph 83 % 0.00 in
04:40 36.7 °F 32.0 °F 30.04 in NW 5.0 mph 16.0 mph 83 % 0.00 in
04:45 36.7 °F 32.0 °F 30.05 in WNW 6.0 mph 16.0 mph 83 % 0.00 in
04:50 36.5 °F 31.8 °F 30.05 in NW 6.0 mph 16.0 mph 83 % 0.00 in
04:55 36.1 °F 31.5 °F 30.05 in WNW 8.0 mph 17.0 mph 83 % 0.00 in
05:00 36.1 °F 31.5 °F 30.05 in NNW 4.0 mph 17.0 mph 83 % 0.00 in
05:05 36.1 °F 31.5 °F 30.06 in NW 7.0 mph 17.0 mph 83 % 0.00 in
05:10 36.1 °F 31.1 °F 30.05 in WNW 6.0 mph 17.0 mph 82 % 0.00 in
05:15 36.0 °F 30.9 °F 30.05 in North 13.0 mph 17.0 mph 82 % 0.00 in
05:20 36.0 °F 30.9 °F 30.05 in NW 6.0 mph 17.0 mph 82 % 0.00 in
05:25 35.8 °F 30.7 °F 30.05 in NNW 4.0 mph 16.0 mph 82 % 0.00 in
05:30 35.8 °F 30.7 °F 30.07 in NW 5.0 mph 16.0 mph 82 % 0.00 in
05:35 35.8 °F 30.7 °F 30.07 in NNW 5.0 mph 16.0 mph 82 % 0.00 in
05:40 35.8 °F 30.7 °F 30.07 in North 7.0 mph 13.0 mph 82 % 0.00 in
05:45 35.6 °F 30.7 °F 30.07 in WNW 2.0 mph 13.0 mph 82 % 0.00 in
05:50 35.6 °F 30.7 °F 30.07 in NW 4.0 mph 13.0 mph 82 % 0.00 in
05:55 35.6 °F 30.7 °F 30.07 in NNW 4.0 mph 13.0 mph 82 % 0.00 in
06:01 35.6 °F 30.7 °F 30.08 in NW 6.0 mph 13.0 mph 82 % 0.00 in
06:06 35.6 °F 30.7 °F 30.09 in WNW 4.0 mph 13.0 mph 82 % 0.00 in
06:11 35.4 °F 30.6 °F 30.09 in NW 4.0 mph 13.0 mph 82 % 0.00 in
06:16 35.4 °F 30.6 °F 30.09 in NNW 6.0 mph 11.0 mph 82 % 0.00 in
06:21 35.2 °F 30.4 °F 30.09 in NW 5.0 mph 11.0 mph 82 % 0.00 in
06:26 35.1 °F 30.2 °F 30.09 in NNW 5.0 mph 11.0 mph 82 % 0.00 in
06:31 34.9 °F 30.9 °F 30.10 in NNW 4.0 mph 12.0 mph 85 % 0.00 in
06:36 34.3 °F 30.9 °F 30.12 in NNW 5.0 mph 12.0 mph 87 % 0.01 in
06:41 34.2 °F 30.9 °F 30.11 in NW 7.0 mph 14.0 mph 88 % 0.02 in
06:46 34.0 °F 30.7 °F 30.10 in NW 4.0 mph 14.0 mph 88 % 0.02 in
06:51 34.0 °F 30.7 °F 30.10 in NNW 5.0 mph 17.0 mph 88 % 0.02 in
06:56 34.0 °F 30.7 °F 30.10 in West 4.0 mph 17.0 mph 88 % 0.02 in
07:01 34.0 °F 30.7 °F 30.09 in NNW 10.0 mph 17.0 mph 88 % 0.02 in
07:06 34.0 °F 30.7 °F 30.09 in NNW 5.0 mph 14.0 mph 88 % 0.02 in
07:11 34.0 °F 30.7 °F 30.09 in NW 4.0 mph 13.0 mph 88 % 0.02 in
07:16 34.0 °F 30.6 °F 30.09 in NW 8.0 mph 15.0 mph 87 % 0.02 in
07:21 34.0 °F 30.6 °F 30.09 in NNW 6.0 mph 15.0 mph 87 % 0.02 in
07:26 34.0 °F 30.7 °F 30.09 in NNW 3.0 mph 15.0 mph 88 % 0.02 in
07:31 34.0 °F 30.6 °F 30.10 in West 5.0 mph 15.0 mph 87 % 0.02 in
07:36 34.0 °F 30.6 °F 30.10 in NW 3.0 mph 14.0 mph 87 % 0.01 in
07:41 34.0 °F 30.7 °F 30.09 in NNE 7.0 mph 14.0 mph 88 % 0.00 in
07:46 34.0 °F 30.7 °F 30.10 in NNW 6.0 mph 14.0 mph 88 % 0.00 in
07:51 34.0 °F 30.7 °F 30.11 in NNE 13.0 mph 13.0 mph 88 % 0.00 in
07:56 34.0 °F 30.7 °F 30.10 in NNW 4.0 mph 13.0 mph 88 % 0.00 in
08:01 34.0 °F 30.7 °F 30.10 in NNW 5.0 mph 14.0 mph 88 % 0.00 in
08:06 34.0 °F 30.7 °F 30.10 in WNW 2.0 mph 14.0 mph 88 % 0.00 in
08:11 34.0 °F 30.7 °F 30.10 in NNW 6.0 mph 14.0 mph 88 % 0.00 in
08:16 34.0 °F 30.7 °F 30.12 in NNW 5.0 mph 12.0 mph 88 % 0.00 in
08:21 34.0 °F 30.7 °F 30.12 in NNW 4.0 mph 15.0 mph 88 % 0.00 in
08:26 34.0 °F 30.7 °F 30.11 in NNW 7.0 mph 15.0 mph 88 % 0.00 in
08:31 34.0 °F 30.7 °F 30.11 in WNW 1.0 mph 15.0 mph 88 % 0.00 in
08:36 34.0 °F 30.7 °F 30.12 in NNW 1.0 mph 11.0 mph 88 % 0.00 in
08:41 34.0 °F 30.7 °F 30.11 in NW 4.0 mph 11.0 mph 88 % 0.00 in
08:46 34.0 °F 30.7 °F 30.12 in NW 5.0 mph 11.0 mph 88 % 0.00 in
08:51 34.2 °F 30.9 °F 30.12 in NW 3.0 mph 11.0 mph 88 % 0.00 in
08:56 34.2 °F 30.9 °F 30.12 in NW 4.0 mph 11.0 mph 88 % 0.00 in
09:01 34.0 °F 30.7 °F 30.12 in NW 5.0 mph 15.0 mph 88 % 0.00 in
09:06 34.2 °F 30.9 °F 30.12 in NW 5.0 mph 15.0 mph 88 % 0.00 in
09:11 34.0 °F 30.6 °F 30.12 in NNW 5.0 mph 15.0 mph 87 % 0.00 in
09:16 34.0 °F 30.6 °F 30.13 in NW 3.0 mph 12.0 mph 87 % 0.00 in
09:21 34.0 °F 30.6 °F 30.12 in NNW 4.0 mph 12.0 mph 87 % 0.00 in
09:26 34.0 °F 30.6 °F 30.13 in NNW 4.0 mph 12.0 mph 87 % 0.00 in
09:31 34.2 °F 30.7 °F 30.13 in WNW 3.0 mph 12.0 mph 87 % 0.00 in
09:36 34.2 °F 30.9 °F 30.13 in NW 5.0 mph 12.0 mph 88 % 0.00 in
09:41 34.2 °F 30.9 °F 30.12 in North 6.0 mph 10.0 mph 88 % 0.00 in
09:46 33.6 °F 30.9 °F 30.12 in NNW 4.0 mph 10.0 mph 90 % 0.05 in
09:51 33.4 °F 31.1 °F 30.14 in NW 1.0 mph 10.0 mph 91 % 0.07 in
09:56 33.3 °F 31.1 °F 30.15 in NW 1.0 mph 10.0 mph 92 % 0.07 in
10:01 33.4 °F 31.3 °F 30.15 in NW 1.0 mph 10.0 mph 92 % 0.07 in
10:06 33.4 °F 31.6 °F 30.16 in NW 1.0 mph 10.0 mph 93 % 0.07 in
10:11 33.4 °F 31.6 °F 30.13 in NW 2.0 mph 8.0 mph 93 % 0.07 in
10:16 33.4 °F 31.3 °F 30.16 in NNW 4.0 mph 9.0 mph 92 % 0.07 in
10:21 33.4 °F 31.3 °F 30.17 in NNW 4.0 mph 9.0 mph 92 % 0.07 in
10:26 33.6 °F 31.5 °F 30.16 in WNW 2.0 mph 9.0 mph 92 % 0.07 in
10:31 33.4 °F 31.1 °F 30.17 in NW 2.0 mph 7.0 mph 91 % 0.07 in
10:36 33.6 °F 31.3 °F 30.17 in NNW 4.0 mph 9.0 mph 91 % 0.07 in
10:41 33.6 °F 31.3 °F 30.17 in NW 3.0 mph 9.0 mph 91 % 0.07 in
10:46 33.6 °F 30.9 °F 30.16 in NW 2.0 mph 9.0 mph 90 % 0.02 in
10:51 33.8 °F 31.1 °F 30.16 in NW 3.0 mph 9.0 mph 90 % 0.00 in
10:56 34.0 °F 31.3 °F 30.15 in West 3.0 mph 9.0 mph 90 % 0.00 in
11:01 34.2 °F 31.5 °F 30.15 in NW 3.0 mph 9.0 mph 90 % 0.00 in
11:06 34.2 °F 31.3 °F 30.16 in NW 6.0 mph 10.0 mph 89 % 0.00 in
11:11 34.2 °F 31.5 °F 30.16 in NW 5.0 mph 10.0 mph 90 % 0.00 in
11:16 34.2 °F 31.3 °F 30.16 in NNW 4.0 mph 10.0 mph 89 % 0.00 in
11:17 34.2 °F 31.3 °F 30.16 in NNE 5.0 mph 10.0 mph 89 % 0.00 in
11:22 34.2 °F 30.9 °F 30.17 in NNW 3.0 mph 10.0 mph 88 % 0.00 in
11:27 34.2 °F 30.9 °F 30.15 in NNW 5.0 mph 10.0 mph 88 % 0.00 in
11:32 34.2 °F 30.7 °F 30.15 in NW 4.0 mph 8.0 mph 87 % 0.00 in
11:37 34.2 °F 30.7 °F 30.16 in North 3.0 mph 11.0 mph 87 % 0.00 in
11:42 34.2 °F 30.7 °F 30.16 in WNW 3.0 mph 11.0 mph 87 % 0.00 in
11:47 34.2 °F 30.7 °F 30.16 in NNW 4.0 mph 11.0 mph 87 % 0.00 in
11:52 34.0 °F 30.6 °F 30.15 in NW 6.0 mph 11.0 mph 87 % 0.00 in
11:57 33.8 °F 30.6 °F 30.16 in WNW 7.0 mph 11.0 mph 88 % 0.01 in
12:02 33.6 °F 30.7 °F 30.15 in WNW 3.0 mph 11.0 mph 89 % 0.01 in
12:07 33.6 °F 30.9 °F 30.14 in NW 3.0 mph 11.0 mph 90 % 0.02 in
12:12 33.4 °F 30.7 °F 30.15 in NW 6.0 mph 11.0 mph 90 % 0.02 in
12:17 33.4 °F 30.6 °F 30.14 in NW 7.0 mph 11.0 mph 89 % 0.02 in
12:22 33.3 °F 30.6 °F 30.14 in NW 4.0 mph 10.0 mph 90 % 0.02 in
12:27 33.4 °F 30.7 °F 30.15 in NNW 5.0 mph 10.0 mph 90 % 0.02 in
12:32 33.3 °F 30.4 °F 30.15 in NW 9.0 mph 11.0 mph 89 % 0.02 in
12:33 33.1 °F 30.2 °F 30.15 in WNW 5.0 mph 11.0 mph 89 % 0.02 in
12:38 33.1 °F 30.4 °F 30.14 in NNW 4.0 mph 13.0 mph 90 % 0.02 in
12:43 33.1 °F 30.4 °F 30.15 in NNW 5.0 mph 13.0 mph 90 % 0.02 in
12:48 33.1 °F 30.4 °F 30.16 in NW 2.0 mph 13.0 mph 90 % 0.02 in
12:53 33.1 °F 30.4 °F 30.16 in NW 4.0 mph 11.0 mph 90 % 0.02 in
12:54 33.1 °F 30.4 °F 30.16 in North 3.0 mph 11.0 mph 90 % 0.02 in
12:59 33.1 °F 30.4 °F 30.16 in NW 8.0 mph 11.0 mph 90 % 0.01 in
13:04 33.1 °F 30.4 °F 30.15 in NW 6.0 mph 10.0 mph 90 % 0.01 in
13:09 32.7 °F 30.2 °F 30.15 in NW 3.0 mph 10.0 mph 90 % 0.00 in
13:14 32.7 °F 30.4 °F 30.15 in NW 5.0 mph 10.0 mph 91 % 0.01 in
13:19 32.5 °F 30.6 °F 30.15 in WNW 2.0 mph 13.0 mph 92 % 0.02 in
13:24 32.5 °F 30.2 °F 30.15 in WNW 6.0 mph 13.0 mph 91 % 0.02 in
13:29 32.5 °F 30.6 °F 30.15 in NW 7.0 mph 13.0 mph 92 % 0.02 in
13:34 32.4 °F 30.4 °F 30.16 in NW 8.0 mph 13.0 mph 92 % 0.02 in
13:39 32.4 °F 30.4 °F 30.15 in West 3.0 mph 13.0 mph 92 % 0.02 in
13:44 32.4 °F 30.4 °F 30.16 in NNW 3.0 mph 13.0 mph 92 % 0.03 in
13:49 32.4 °F 30.4 °F 30.15 in NNW 7.0 mph 12.0 mph 92 % 0.03 in
13:54 32.4 °F 30.4 °F 30.15 in NW 3.0 mph 12.0 mph 92 % 0.03 in
13:59 32.5 °F 30.6 °F 30.15 in WNW 8.0 mph 11.0 mph 92 % 0.03 in
14:05 32.4 °F 30.0 °F 30.16 in NNW 7.0 mph 11.0 mph 91 % 0.03 in
14:10 32.5 °F 30.2 °F 30.16 in NNW 7.0 mph 12.0 mph 91 % 0.03 in
14:15 32.7 °F 30.4 °F 30.15 in NW 6.0 mph 12.0 mph 91 % 0.01 in
14:20 32.9 °F 30.4 °F 30.16 in North 6.0 mph 11.0 mph 90 % 0.01 in
14:30 32.9 °F 29.7 °F 30.17 in West 5.0 mph 13.0 mph 88 % 0.01 in
14:35 33.1 °F 29.8 °F 30.17 in WNW 3.0 mph 13.0 mph 88 % 0.01 in
14:40 33.3 °F 30.4 °F 30.17 in NW 4.0 mph 13.0 mph 89 % 0.00 in
14:45 33.1 °F 30.2 °F 30.17 in North 5.0 mph 12.0 mph 89 % 0.00 in
14:50 33.1 °F 30.2 °F 30.17 in NW 7.0 mph 12.0 mph 89 % 0.00 in
14:55 33.3 °F 30.4 °F 30.18 in NW 9.0 mph 11.0 mph 89 % 0.00 in
15:00 33.3 °F 30.0 °F 30.17 in NW 7.0 mph 16.0 mph 88 % 0.00 in
15:03 33.3 °F 29.8 °F 30.17 in NW 6.0 mph 16.0 mph 87 % 0.00 in
15:08 33.3 °F 29.8 °F 30.17 in NNW 7.0 mph 16.0 mph 87 % 0.00 in
15:13 33.3 °F 29.8 °F 30.17 in NW 9.0 mph 16.0 mph 87 % 0.00 in
15:18 33.4 °F 30.0 °F 30.17 in WNW 8.0 mph 13.0 mph 87 % 0.00 in
15:23 33.6 °F 29.8 °F 30.17 in NNW 3.0 mph 11.0 mph 86 % 0.00 in
15:28 34.0 °F 30.6 °F 30.17 in WNW 7.0 mph 11.0 mph 87 % 0.00 in
15:33 34.2 °F 30.2 °F 30.18 in NNW 3.0 mph 9.0 mph 85 % 0.00 in
15:38 34.0 °F 29.3 °F 30.19 in NW 7.0 mph 10.0 mph 83 % 0.00 in
15:43 34.0 °F 29.7 °F 30.19 in NNW 2.0 mph 13.0 mph 84 % 0.00 in
15:48 34.0 °F 29.3 °F 30.19 in North 7.0 mph 15.0 mph 83 % 0.00 in
15:53 34.0 °F 29.1 °F 30.19 in NW 8.0 mph 15.0 mph 82 % 0.00 in
15:58 33.6 °F 28.8 °F 30.20 in NNW 3.0 mph 15.0 mph 82 % 0.00 in
16:03 33.6 °F 28.4 °F 30.21 in WNW 9.0 mph 14.0 mph 81 % 0.00 in
16:08 33.4 °F 27.9 °F 30.21 in NW 9.0 mph 14.0 mph 80 % 0.00 in
16:13 33.4 °F 27.9 °F 30.22 in NNW 8.0 mph 14.0 mph 80 % 0.00 in
16:18 33.4 °F 27.9 °F 30.22 in NNW 5.0 mph 14.0 mph 80 % 0.00 in
16:23 33.4 °F 27.3 °F 30.23 in NW 5.0 mph 14.0 mph 78 % 0.00 in
16:28 33.4 °F 27.0 °F 30.23 in NW 12.0 mph 14.0 mph 77 % 0.00 in
16:33 33.4 °F 27.3 °F 30.24 in NNW 8.0 mph 15.0 mph 78 % 0.00 in
16:38 33.4 °F 27.0 °F 30.24 in NW 6.0 mph 16.0 mph 77 % 0.00 in
16:44 33.4 °F 27.0 °F 30.24 in NNE 6.0 mph 16.0 mph 77 % 0.00 in
16:49 33.4 °F 27.0 °F 30.25 in NW 3.0 mph 16.0 mph 77 % 0.00 in
16:54 33.6 °F 27.1 °F 30.25 in NNE 5.0 mph 14.0 mph 77 % 0.00 in
16:59 33.6 °F 27.5 °F 30.25 in NNW 1.0 mph 14.0 mph 78 % 0.00 in
17:04 33.6 °F 27.5 °F 30.25 in NW 4.0 mph 10.0 mph 78 % 0.00 in
17:09 33.6 °F 27.1 °F 30.25 in NNW 7.0 mph 10.0 mph 77 % 0.00 in
17:14 33.6 °F 26.8 °F 30.25 in NW 5.0 mph 12.0 mph 76 % 0.00 in
17:19 33.6 °F 26.8 °F 30.26 in NNW 11.0 mph 12.0 mph 76 % 0.00 in
17:24 33.4 °F 26.8 °F 30.26 in NNW 7.0 mph 12.0 mph 76 % 0.00 in
17:29 33.4 °F 26.8 °F 30.27 in NW 6.0 mph 14.0 mph 76 % 0.00 in
17:34 33.4 °F 27.0 °F 30.27 in NW 7.0 mph 14.0 mph 77 % 0.00 in
17:39 33.3 °F 26.2 °F 30.28 in NW 13.0 mph 14.0 mph 75 % 0.00 in
17:44 33.3 °F 26.6 °F 30.29 in WNW 7.0 mph 14.0 mph 76 % 0.00 in
17:49 33.1 °F 25.7 °F 30.29 in NW 5.0 mph 14.0 mph 74 % 0.00 in
17:54 33.1 °F 25.7 °F 30.29 in North 8.0 mph 14.0 mph 74 % 0.00 in
17:59 32.9 °F 25.5 °F 30.30 in North 5.0 mph 16.0 mph 74 % 0.00 in
18:04 32.9 °F 25.5 °F 30.30 in West 5.0 mph 16.0 mph 74 % 0.00 in
18:09 32.9 °F 25.9 °F 30.30 in NW 6.0 mph 16.0 mph 75 % 0.00 in
18:14 32.7 °F 25.3 °F 30.30 in NNW 1.0 mph 14.0 mph 74 % 0.00 in
18:19 32.9 °F 25.9 °F 30.30 in WNW 8.0 mph 14.0 mph 75 % 0.00 in
18:24 33.1 °F 26.1 °F 30.30 in NW 11.0 mph 12.0 mph 75 % 0.00 in
18:29 32.7 °F 25.7 °F 30.31 in NNW 13.0 mph 13.0 mph 75 % 0.00 in
18:34 32.7 °F 25.7 °F 30.31 in NNW 5.0 mph 13.0 mph 75 % 0.00 in
18:39 32.7 °F 25.7 °F 30.31 in North 8.0 mph 13.0 mph 75 % 0.00 in
18:44 32.7 °F 25.3 °F 30.31 in NW 8.0 mph 13.0 mph 74 % 0.00 in
18:49 32.5 °F 25.2 °F 30.32 in NW 5.0 mph 11.0 mph 74 % 0.00 in
18:54 32.5 °F 25.5 °F 30.32 in NW 6.0 mph 14.0 mph 75 % 0.00 in
18:59 32.2 °F 24.8 °F 30.33 in NW 6.0 mph 14.0 mph 74 % 0.00 in
19:04 32.0 °F 25.0 °F 30.34 in NW 4.0 mph 14.0 mph 75 % 0.00 in
19:09 31.8 °F 24.4 °F 30.35 in NW 2.0 mph 14.0 mph 74 % 0.00 in
19:14 31.6 °F 24.3 °F 30.35 in NNW 7.0 mph 14.0 mph 74 % 0.00 in
19:20 31.5 °F 24.1 °F 30.35 in NNW 12.0 mph 13.0 mph 74 % 0.00 in
19:25 31.5 °F 24.1 °F 30.35 in NNW 13.0 mph 17.0 mph 74 % 0.00 in
19:30 31.1 °F 23.7 °F 30.35 in NW 8.0 mph 17.0 mph 74 % 0.00 in
19:35 30.9 °F 23.5 °F 30.36 in North 9.0 mph 17.0 mph 74 % 0.00 in
19:40 30.7 °F 23.4 °F 30.36 in NNW 6.0 mph 15.0 mph 74 % 0.00 in
19:45 30.7 °F 23.7 °F 30.36 in NNW 11.0 mph 15.0 mph 75 % 0.00 in
19:50 30.6 °F 23.5 °F 30.36 in NNW 5.0 mph 15.0 mph 75 % 0.00 in
19:55 30.6 °F 23.5 °F 30.37 in NW 6.0 mph 14.0 mph 75 % 0.00 in
20:00 30.6 °F 23.5 °F 30.38 in NW 5.0 mph 14.0 mph 75 % 0.00 in
20:05 30.6 °F 23.5 °F 30.38 in NW 6.0 mph 13.0 mph 75 % 0.00 in
20:10 30.4 °F 23.4 °F 30.38 in NNW 10.0 mph 13.0 mph 75 % 0.00 in
20:15 30.4 °F 23.4 °F 30.38 in NW 4.0 mph 12.0 mph 75 % 0.00 in
20:20 30.4 °F 23.4 °F 30.38 in NW 8.0 mph 11.0 mph 75 % 0.00 in
20:25 30.2 °F 23.2 °F 30.39 in WNW 5.0 mph 12.0 mph 75 % 0.00 in
20:30 30.0 °F 23.0 °F 30.39 in NNW 3.0 mph 12.0 mph 75 % 0.00 in
20:35 30.0 °F 23.0 °F 30.40 in NNW 9.0 mph 13.0 mph 75 % 0.00 in
20:40 30.0 °F 23.4 °F 30.40 in NW 3.0 mph 13.0 mph 76 % 0.00 in
20:45 30.0 °F 23.7 °F 30.40 in NNW 6.0 mph 13.0 mph 77 % 0.00 in
20:50 30.0 °F 23.7 °F 30.40 in NW 2.0 mph 10.0 mph 77 % 0.00 in
20:55 29.8 °F 23.5 °F 30.40 in NNW 2.0 mph 10.0 mph 77 % 0.00 in
21:00 29.8 °F 23.5 °F 30.40 in NW 4.0 mph 10.0 mph 77 % 0.00 in
21:05 29.8 °F 23.5 °F 30.41 in NW 5.0 mph 10.0 mph 77 % 0.00 in
21:10 29.5 °F 22.8 °F 30.40 in NW 3.0 mph 10.0 mph 76 % 0.00 in
21:15 29.3 °F 22.6 °F 30.41 in NW 9.0 mph 12.0 mph 76 % 0.00 in
21:20 29.1 °F 22.3 °F 30.41 in NW 3.0 mph 13.0 mph 75 % 0.00 in
21:25 29.1 °F 22.3 °F 30.42 in NNW 4.0 mph 15.0 mph 75 % 0.00 in
21:30 28.9 °F 22.3 °F 30.42 in North 12.0 mph 15.0 mph 76 % 0.00 in
21:36 28.9 °F 22.3 °F 30.42 in NNE 5.0 mph 15.0 mph 76 % 0.00 in
21:41 28.8 °F 22.5 °F 30.42 in NNW 4.0 mph 12.0 mph 77 % 0.00 in
21:46 28.8 °F 22.5 °F 30.42 in NW 3.0 mph 12.0 mph 77 % 0.00 in
21:51 28.6 °F 22.3 °F 30.43 in WNW 3.0 mph 9.0 mph 77 % 0.00 in
21:56 28.6 °F 22.3 °F 30.43 in NW 2.0 mph 9.0 mph 77 % 0.00 in
22:01 28.4 °F 22.5 °F 30.43 in NW 4.0 mph 9.0 mph 78 % 0.00 in
22:06 28.2 °F 22.3 °F 30.43 in NW 4.0 mph 8.0 mph 78 % 0.00 in
22:11 28.2 °F 22.3 °F 30.43 in NNW 6.0 mph 9.0 mph 78 % 0.00 in
22:16 28.2 °F 22.3 °F 30.44 in NW 3.0 mph 9.0 mph 78 % 0.00 in
22:21 28.0 °F 22.1 °F 30.44 in NNW 5.0 mph 9.0 mph 78 % 0.00 in
22:26 28.0 °F 22.1 °F 30.45 in WNW 1.0 mph 9.0 mph 78 % 0.00 in
22:31 28.0 °F 21.7 °F 30.45 in NW 3.0 mph 13.0 mph 77 % 0.00 in
22:36 27.9 °F 21.6 °F 30.45 in NNW 2.0 mph 13.0 mph 77 % 0.00 in
22:41 27.9 °F 21.9 °F 30.45 in NNW 6.0 mph 13.0 mph 78 % 0.00 in
22:46 27.9 °F 21.9 °F 30.45 in NW 5.0 mph 11.0 mph 78 % 0.00 in
22:51 27.7 °F 21.7 °F 30.46 in NW 8.0 mph 12.0 mph 78 % 0.00 in
22:56 27.7 °F 21.7 °F 30.46 in NNW 3.0 mph 12.0 mph 78 % 0.00 in
23:01 27.3 °F 21.7 °F 30.46 in Calm   12.0 mph 79 % 0.00 in
23:06 27.3 °F 21.7 °F 30.46 in NW 4.0 mph 9.0 mph 79 % 0.00 in
23:11 27.1 °F 21.7 °F 30.46 in NNE 2.0 mph 8.0 mph 80 % 0.00 in
23:16 27.1 °F 21.7 °F 30.46 in NW 2.0 mph 7.0 mph 80 % 0.00 in
23:21 26.8 °F 21.2 °F 30.46 in North 5.0 mph 12.0 mph 79 % 0.00 in
23:26 26.4 °F 20.5 °F 30.47 in NNW 3.0 mph 13.0 mph 78 % 0.00 in
23:31 26.2 °F 20.7 °F 30.47 in WNW 4.0 mph 13.0 mph 79 % 0.00 in
23:36 26.2 °F 20.7 °F 30.47 in North 5.0 mph 13.0 mph 79 % 0.00 in
23:41 26.1 °F 20.5 °F 30.47 in West 2.0 mph 12.0 mph 79 % 0.00 in
23:46 26.1 °F 20.7 °F 30.47 in WNW 3.0 mph 12.0 mph 80 % 0.00 in
23:51 25.9 °F 20.5 °F 30.47 in NW 6.0 mph 11.0 mph 80 % 0.00 in
23:56 26.1 °F 20.7 °F 30.47 in NW 2.0 mph 11.0 mph 80 % 0.00 in
Spring, Texas: Villages of Bridgestone
Compliments of Weather Underground - 2.75 mb

Script developed by  Jim McMurry - jmcmurry@mwt.net Adapted for the template by  Wim van der Kuil - Leuven-Template.eu

You find our weather info also at:

UK Metoffice

WeatherCloud

Weather Underground

Mid-South Weather Network

AWEKAS

Citizen Weather Observer Program (CWOP)

HAMweather, WeatherForYou, PWS Weather

Equipment we use:

Weather-station
Davis Vantage Vue

Weather-program
Meteohub

Weather-server
Debian 7.9 x86 (Guest)

Provider
DreamHost

Davis Vantage Vue

Meteohub

Debian 7.9 x86 (Guest)

DreamHost